TimeEDT,TemperatureF,Dew PointF,Humidity,Sea Level PressureIn,VisibilityMPH,Wind Direction,Wind SpeedMPH,Gust SpeedMPH,PrecipitationIn,Events,Conditions,WindDirDegrees,DateUTC
12:54 AM,64.0,63.0,96,30.21,10.0,Calm,Calm,-,N/A,,Overcast,0,2008-09-11 04:54:00
1:54 AM,64.0,63.0,96,30.20,10.0,South,5.8,-,N/A,,Overcast,170,2008-09-11 05:54:00
2:54 AM,64.0,64.0,100,30.19,4.0,South,5.8,-,N/A,,Overcast,180,2008-09-11 06:54:00
3:28 AM,64.4,64.4,100,30.26,2.5,South,5.8,-,N/A,,Overcast,170,2008-09-11 07:28:00
3:54 AM,63.0,63.0,100,30.20,2.5,South,3.5,-,0.00,,Overcast,190,2008-09-11 07:54:00
4:26 AM,62.6,62.6,100,30.25,3.0,SW,3.5,-,0.00,Rain,Light Rain,220,2008-09-11 08:26:00
4:46 AM,62.6,62.6,100,30.25,2.5,Calm,Calm,-,0.00,,Overcast,0,2008-09-11 08:46:00
4:54 AM,63.0,63.0,100,30.19,2.5,Calm,Calm,-,0.00,,Overcast,0,2008-09-11 08:54:00
5:16 AM,62.6,62.6,100,30.25,1.8,SSE,4.6,-,N/A,,Overcast,160,2008-09-11 09:16:00
5:49 AM,64.4,64.4,100,30.26,1.8,SSE,4.6,-,0.00,Rain,Light Rain,150,2008-09-11 09:49:00
5:54 AM,64.0,64.0,100,30.19,2.0,Calm,Calm,-,0.00,Rain,Light Rain,0,2008-09-11 09:54:00
6:49 AM,62.6,62.6,100,30.27,4.0,South,5.8,-,0.00,,Overcast,180,2008-09-11 10:49:00
6:54 AM,63.0,63.0,100,30.22,1.5,South,5.8,-,0.00,,Overcast,180,2008-09-11 10:54:00
7:21 AM,64.4,62.6,94,30.28,1.5,SSE,5.8,-,N/A,,Overcast,160,2008-09-11 11:21:00
7:54 AM,64.0,63.0,96,30.24,1.5,SSW,4.6,-,0.00,,Overcast,200,2008-09-11 11:54:00
7:57 AM,64.4,62.6,94,30.29,2.5,SSW,4.6,-,N/A,,Overcast,200,2008-09-11 11:57:00
8:10 AM,64.4,62.6,94,30.29,4.0,South,4.6,-,N/A,,Overcast,190,2008-09-11 12:10:00
8:54 AM,64.0,63.0,96,30.25,4.0,SSE,4.6,-,0.02,Rain,Light Rain,160,2008-09-11 12:54:00
9:40 AM,64.4,62.6,94,30.31,10.0,South,4.6,-,0.00,,Overcast,180,2008-09-11 13:40:00
9:54 AM,64.9,63.0,93,30.26,10.0,Variable,3.5,-,0.00,,Overcast,0,2008-09-11 13:54:00
10:01 AM,64.4,64.4,100,30.32,2.0,South,3.5,-,N/A,,Overcast,190,2008-09-11 14:01:00
10:54 AM,64.9,64.0,97,30.28,2.0,South,4.6,-,0.00,Rain,Light Rain,180,2008-09-11 14:54:00
11:54 AM,68.0,64.9,90,30.28,2.0,SSE,6.9,-,0.00,,Overcast,150,2008-09-11 15:54:00
12:01 PM,68.0,64.4,88,30.33,3.0,SSE,6.9,-,0.00,Rain,Light Rain,160,2008-09-11 16:01:00
12:54 PM,69.1,64.9,87,30.26,10.0,Variable,5.8,-,0.00,,Mostly Cloudy,0,2008-09-11 16:54:00
1:29 PM,71.6,66.2,83,30.31,10.0,SSE,5.8,-,N/A,,Overcast,160,2008-09-11 17:29:00
1:54 PM,72.0,66.0,81,30.24,10.0,SE,3.5,-,N/A,,Overcast,130,2008-09-11 17:54:00
2:16 PM,73.4,66.2,78,30.29,10.0,SSE,6.9,-,N/A,,Scattered Clouds,160,2008-09-11 18:16:00
2:54 PM,73.9,66.0,76,30.21,10.0,SE,6.9,-,N/A,,Mostly Cloudy,140,2008-09-11 18:54:00
3:54 PM,73.9,66.9,79,30.19,10.0,SSE,10.4,-,N/A,,Overcast,160,2008-09-11 19:54:00
4:54 PM,73.0,66.0,79,30.18,10.0,SE,6.9,-,N/A,,Overcast,130,2008-09-11 20:54:00
5:54 PM,72.0,66.0,81,30.18,10.0,SSE,8.1,-,N/A,,Mostly Cloudy,160,2008-09-11 21:54:00
6:54 PM,70.0,66.9,90,30.20,10.0,South,6.9,-,N/A,,Mostly Cloudy,190,2008-09-11 22:54:00
7:52 PM,68.0,66.2,94,30.27,10.0,South,10.4,-,N/A,,Overcast,170,2008-09-11 23:52:00
7:54 PM,68.0,66.0,93,30.21,10.0,South,11.5,-,N/A,,Overcast,170,2008-09-11 23:54:00
8:02 PM,68.0,66.2,94,30.27,10.0,SSE,12.7,-,N/A,,Overcast,160,2008-09-12 00:02:00
8:18 PM,68.0,66.2,94,30.27,10.0,SSE,8.1,-,N/A,,Overcast,150,2008-09-12 00:18:00
8:54 PM,68.0,64.9,90,30.23,10.0,SE,5.8,-,0.00,Rain,Light Rain,140,2008-09-12 00:54:00
9:54 PM,68.0,66.0,93,30.25,10.0,SSE,5.8,-,N/A,,Overcast,160,2008-09-12 01:54:00
10:54 PM,68.0,66.0,93,30.25,10.0,Variable,4.6,-,N/A,,Overcast,0,2008-09-12 02:54:00
11:41 PM,66.2,66.2,100,30.31,8.0,SSE,4.6,-,N/A,,Overcast,160,2008-09-12 03:41:00
11:54 PM,66.9,66.0,97,30.25,6.0,SSE,3.5,-,N/A,,Overcast,160,2008-09-12 03:54:00